Helicity
141 122 113 98 85 72 65 53 53 71 61 69 54 56 48 32 29 13 25 27 32 49 35 15 29 30 37 62 96 121 155 187 199 212 200 245 298 313
127 137 123 96 88 73 65 61 50 41 40 63 51 35 33 38 25 28 29 42 41 46 31 27 18 33 31 41 51 77 107 136 161 187 229 257 283 325
146 150 129 96 88 70 62 63 52 35 32 30 34 34 30 58 52 38 30 46 23 54 26 30 16 21 29 34 43 56 65 91 122 149 180 231 265 292
144 137 123 109 109 73 70 73 49 43 23 33 30 38 27 49 30 16 10 24 25 35 34 31 26 20 33 32 42 50 59 67 82 103 145 183 222 247
133 126 115 111 108 89 79 62 48 34 36 30 26 20 18 52 57 27 8 30 43 46 31 37 33 35 34 45 47 61 62 53 63 79 85 117 165 216
116 102 94 86 65 64 73 57 35 25 29 23 17 13 7 25 11 33 47 31 16 42 23 31 48 53 67 73 71 74 75 70 70 71 74 81 108 154
122 112 79 54 60 46 37 35 40 20 6 13 11 1 5 -1 6 15 15 20 25 26 20 -9 20 19 -1 31 42 58 70 82 88 88 86 86 82 109
130 135 103 67 50 60 48 43 35 22 6 -19 -26 -12 -6 11 11 9 4 4 16 33 55 25 37 21 -1 -10 53 62 74 82 95 95 108 112 106 97
121 129 129 95 114 99 81 81 62 42 -4 -32 -25 -30 4 4 15 10 9 6 -8 7 33 18 75 46 40 44 108 90 79 88 97 105 109 122 122 109
116 105 107 88 78 74 74 87 69 48 -6 -27 -32 -29 -18 -8 7 20 16 9 10 14 13 5 75 44 30 29 103 118 122 130 106 112 112 120 126 136
126 112 100 83 76 75 79 79 71 67 63 66 56 61 64 58 52 22 27 24 -9 4 38 33 16 67 23 26 63 126 137 159 131 129 123 128 143 131
122 105 97 82 100 99 84 74 82 36 45 42 41 49 64 51 69 46 12 3 6 24 32 43 35 25 31 54 69 87 114 148 150 159 151 151 157 56
121 89 69 83 93 101 88 70 44 23 40 52 53 59 62 57 70 89 66 49 38 6 24 52 28 23 18 25 43 104 81 101 133 139 186 176 156 118
116 68 54 87 99 102 76 87 80 60 57 62 59 54 47 47 78 100 118 107 46 52 55 55 29 38 37 9 12 47 102 61 96 120 129 154 202 204
117 78 60 84 99 107 97 102 87 74 60 58 44 32 26 31 52 87 142 146 133 97 91 82 76 68 50 14 10 6 14 33 106 107 122 109 93 104
134 102 110 136 138 127 131 114 90 65 58 44 35 37 57 71 84 98 107 116 101 106 113 110 104 91 60 24 2 -15 13 -9 53 72 77 83 96 86
197 185 154 138 119 113 136 129 105 80 76 58 62 74 89 89 93 96 102 95 105 91 91 104 113 89 81 42 -4 -17 3 11 32 34 28 65 73 60
201 159 127 115 123 127 146 133 111 90 78 76 74 81 98 106 104 103 98 101 108 96 89 72 73 76 76 77 61 1 -7 6 24 36 29 19 49 58
132 139 126 125 135 141 139 136 117 85 93 98 100 102 106 113 115 104 101 115 117 101 85 72 75 65 53 43 21 57 5 1 23 28 13 26 9 37
122 135 128 135 148 153 145 136 133 125 124 117 117 111 107 117 125 122 119 109 111 107 101 93 86 78 52 38 34 28 56 11 2 5 8 -5 1 -7
110 120 142 151 155 165 157 151 146 136 130 142 135 120 117 126 129 126 121 118 113 107 105 99 85 59 58 58 51 22 47 76 42 11 5 -8 -1 -6
139 132 147 162 169 175 169 159 159 159 154 159 144 128 123 131 144 132 122 120 114 97 89 84 79 82 71 69 47 40 39 54 59 57 54 44 -14 -17
141 155 172 171 175 181 170 154 156 156 170 166 153 142 144 156 140 130 124 123 117 100 84 84 74 67 68 63 44 38 23 27 45 71 69 66 63 48
Wind_Speed
35 36 38 41 42 43 43 43 42 46 43 45 52 60 63 61 60 59 57 58 60 59 60 58 60 59 59 59 60 60 61 61 62 63 65 67 71 76
34 35 38 39 41 42 41 43 43 40 42 43 49 54 58 61 60 59 57 57 59 57 58 58 59 60 60 61 61 61 62 62 62 62 63 64 66 68
32 33 36 38 41 41 41 42 45 42 42 42 46 53 55 61 60 59 58 55 60 59 57 57 58 60 62 62 63 63 63 64 64 63 63 64 64 66
28 31 34 38 41 41 42 42 43 44 40 45 47 53 54 61 60 60 59 56 58 66 62 62 60 60 62 63 64 65 65 65 65 66 64 64 64 64
25 28 32 36 40 42 42 42 42 42 44 43 48 51 51 61 61 61 62 61 56 70 65 65 63 65 66 67 67 67 67 67 67 68 66 65 64 64
23 26 29 33 37 40 41 42 41 42 44 45 47 51 54 60 61 65 66 65 60 72 67 68 65 66 69 71 72 72 72 71 70 70 69 68 66 65
23 25 28 28 31 35 38 41 42 43 44 45 49 51 56 60 65 67 66 69 54 74 72 69 70 67 69 72 74 73 74 73 72 71 72 70 69 67
21 26 30 28 27 32 35 38 40 43 45 46 49 53 57 61 64 68 69 69 66 71 79 69 75 68 69 73 76 75 75 74 74 73 73 73 70 68
21 24 28 28 29 34 37 39 40 44 41 44 49 53 57 60 64 69 70 70 64 69 80 68 75 70 66 74 79 78 76 76 75 75 75 75 73 71
21 23 25 26 29 32 34 38 40 41 41 44 48 52 53 57 59 62 64 71 60 61 78 68 75 74 61 70 80 79 79 79 76 76 75 76 75 73
20 22 24 27 27 29 33 36 38 42 43 45 48 52 56 58 61 65 69 73 69 62 75 72 75 76 60 69 79 80 80 80 78 77 75 75 75 73
19 21 22 24 28 31 33 35 38 42 44 46 50 53 56 60 62 63 63 69 71 67 75 76 73 74 67 65 77 81 78 79 78 78 76 75 74 70
14 15 20 22 26 30 32 35 38 38 43 46 50 55 56 61 64 65 62 58 66 65 68 68 68 71 64 70 71 79 75 77 77 76 76 74 72 70
8 11 16 20 24 29 31 34 36 39 43 47 51 55 57 61 66 64 61 53 55 62 68 68 63 66 68 69 73 72 76 70 75 75 72 71 68 67
6 8 12 16 21 28 29 33 36 39 43 47 51 53 54 58 61 59 58 56 57 62 66 66 65 64 61 66 71 74 74 63 76 73 71 68 66 66
5 8 11 18 22 25 29 34 37 37 41 46 50 51 52 55 60 60 59 60 58 64 64 66 66 63 62 64 67 72 72 66 73 72 69 66 64 64
5 8 12 16 19 23 27 32 34 36 42 45 49 50 52 53 56 57 58 58 61 64 65 65 66 63 60 61 66 70 73 70 72 71 68 67 65 65
6 7 9 13 16 18 22 28 33 36 40 43 46 47 49 51 53 55 55 59 62 62 63 63 65 65 62 59 64 70 71 72 72 71 69 68 68 68
8 8 10 12 14 18 21 26 31 34 36 39 43 45 45 47 49 52 55 58 59 60 60 62 64 66 68 71 61 68 73 72 73 71 69 68 69 70
10 8 10 11 14 17 20 24 28 32 33 35 40 42 42 44 48 50 52 57 59 59 60 61 63 67 66 68 65 68 70 73 72 72 71 68 68 66
7 7 8 10 12 15 17 21 25 28 30 33 37 39 40 40 44 46 49 52 57 59 61 63 63 63 60 58 65 68 69 73 70 70 71 72 74 66
5 5 5 7 11 13 15 19 24 27 28 32 34 36 37 37 40 43 46 51 54 57 58 60 62 64 62 64 68 71 73 73 70 67 66 68 70 69
6 3 3 7 10 12 15 19 23 24 27 29 31 33 34 37 36 40 44 48 51 56 57 61 62 62 63 64 66 71 72 73 74 74 70 70 70 69
Wind_Direction
9 6 4 4 6 8 6 359 358 351 353 359 354 352 346 342 337 330 324 325 333 330 333 334 334 333 331 329 325 322 319 314 308 302 298 293 285 278
12 8 5 6 7 9 8 4 358 0 356 360 357 360 358 351 346 335 333 340 335 328 333 334 334 333 332 332 330 328 326 322 317 312 307 301 294 288
12 10 9 10 8 10 10 6 355 360 358 360 359 356 360 346 343 345 344 350 343 333 331 328 334 333 333 332 332 330 329 328 326 321 314 311 305 297
15 13 11 10 8 8 8 5 356 357 1 354 355 350 355 344 346 350 352 354 354 340 342 338 334 332 332 332 333 332 331 330 328 327 323 317 314 308
20 18 15 13 7 6 8 5 358 357 359 358 351 350 354 343 342 351 351 347 354 343 344 343 340 339 338 333 332 332 331 331 329 328 326 323 318 315
21 19 18 11 10 10 8 3 358 352 354 355 350 347 347 344 348 341 340 340 341 341 340 341 340 340 338 336 332 331 330 330 330 330 329 324 321 318
19 18 14 17 20 14 10 359 353 346 347 351 347 345 342 343 342 344 345 343 357 347 339 346 338 337 337 336 334 332 330 329 329 329 330 327 324 320
15 10 8 18 21 11 9 1 352 341 340 345 345 342 341 343 343 343 345 347 348 350 341 344 345 336 339 336 334 333 331 330 329 328 328 329 327 323
15 10 8 14 12 1 2 358 352 340 341 346 344 343 342 344 343 342 343 344 346 346 342 343 343 337 341 341 337 334 332 330 329 328 327 326 327 324
9 9 9 10 4 3 3 354 347 345 345 346 346 345 346 346 348 349 349 345 348 349 348 344 343 339 338 343 341 338 336 333 330 328 327 326 325 324
3 7 10 6 5 5 2 354 346 337 341 348 349 349 346 347 349 348 346 345 345 347 349 345 343 339 338 338 339 338 337 336 333 331 328 326 325 324
359 8 10 6 3 2 2 353 344 336 338 341 343 345 346 348 350 353 351 348 348 346 348 345 346 346 337 339 337 338 335 337 335 333 330 328 326 323
360 10 7 7 3 4 4 356 346 343 342 344 344 345 348 348 349 352 354 356 353 352 353 352 349 347 345 338 340 340 339 338 336 333 330 328 327 324
10 16 7 4 3 3 1 359 353 347 343 343 343 345 348 348 349 352 357 3 3 359 356 357 353 351 348 343 340 342 340 339 337 333 331 329 327 324
14 15 4 4 2 359 359 356 353 349 346 344 344 346 350 351 352 354 357 1 1 359 358 358 356 353 353 348 343 340 339 340 338 333 329 328 327 326
16 5 2 355 354 356 354 351 351 351 348 346 346 348 351 353 355 357 357 356 356 355 357 357 354 352 347 346 344 340 341 340 335 330 325 324 326 328
10 356 347 345 346 346 348 348 350 351 347 348 349 350 352 355 356 359 359 359 356 354 354 355 353 351 347 346 342 340 338 338 334 327 327 322 325 326
335 325 329 334 338 344 346 346 346 347 348 350 351 353 354 356 357 359 0 360 357 356 355 355 353 349 346 343 345 339 338 334 332 328 327 322 320 322
309 308 315 324 334 340 341 343 344 346 351 353 355 356 357 357 358 358 360 359 357 357 356 355 351 348 342 335 340 342 334 333 330 328 328 324 319 317
308 299 306 318 329 336 341 344 346 349 352 355 355 356 357 357 356 357 358 358 357 357 356 355 351 346 342 338 336 337 339 333 329 327 326 326 321 316
296 294 301 317 329 337 341 344 347 349 352 353 353 355 356 357 355 357 357 358 357 356 354 352 351 348 347 346 337 334 335 335 334 328 326 323 321 319
263 281 298 319 329 335 340 343 346 347 349 350 352 353 354 355 354 354 355 355 355 354 353 352 351 349 347 344 338 334 332 332 334 332 331 329 324 319
199 232 294 319 330 336 339 341 343 346 348 349 350 351 353 351 353 352 353 353 352 351 351 350 350 350 348 344 340 336 333 332 330 328 327 328 325 321